When you browse on this site, cookies collect data to enhance your experience and personalize the content and advertising you see.
Visit our Privacy Policy to learn more. By continuing to use the site, you agree to this use of cookies and data.
  • In United Kingdom
  • List of Countries
  • For 7 days
  • Water Temperature
  • Satellite Maps
  • Weather Map
  • Weather Widgets
  • user-avatar
    Login

    Hourly Weather Edinburgh

    Today, 20 June, Thursday

    Time Temperature Precipitation Wind Pressure Humidity
    00:00 +10°C° 0 mm 2 mps 752 mmHg 96%
    01:00 +10°C° 0.7 mm 2 mps 752 mmHg 95%
    02:00 +10°C° 0.7 mm 2 mps 751 mmHg 93%
    03:00 +9°C° 0.7 mm 3 mps 751 mmHg 92%
    04:00 +9°C° 0 mm 3 mps 751 mmHg 92%
    05:00 +9°C° 0 mm 3 mps 751 mmHg 92%
    06:00 +10°C° 0 mm 4 mps 751 mmHg 91%
    07:00 +10°C° 0.3 mm 4 mps 752 mmHg 89%
    08:00 +10°C° 0.3 mm 5 mps 752 mmHg 86%
    09:00 +11°C° 0.3 mm 6 mps 752 mmHg 84%
    10:00 +11°C° 0.5 mm 6 mps 752 mmHg 81%
    11:00 +13°C° 0.5 mm 6 mps 753 mmHg 79%
    12:00 +14°C° 0.5 mm 6 mps 753 mmHg 76%
    13:00 +14°C° 0.3 mm 6 mps 753 mmHg 72%
    14:00 +14°C° 0.3 mm 6 mps 754 mmHg 67%
    15:00 +14°C° 0.3 mm 6 mps 754 mmHg 63%
    16:00 +14°C° 0 mm 6 mps 754 mmHg 63%
    17:00 +13°C° 0 mm 5 mps 754 mmHg 63%
    18:00 +12°C° 0 mm 5 mps 755 mmHg 64%
    19:00 +11°C° 0 mm 4 mps 755 mmHg 70%
    20:00 +10°C° 0 mm 4 mps 755 mmHg 76%
    21:00 +9°C° 0 mm 3 mps 756 mmHg 82%
    22:00 +8°C° 0 mm 3 mps 756 mmHg 85%
    23:00 +7°C° 0 mm 2 mps 757 mmHg 88%

    Tomorrow, 21 June, Friday

    Time Temperature Precipitation Wind Pressure Humidity
    00:00 +7°C° 0 mm 2 mps 757 mmHg 91%
    01:00 +7°C° 0 mm 2 mps 757 mmHg 91%
    02:00 +6°C° 0 mm 2 mps 757 mmHg 92%
    03:00 +6°C° 0 mm 2 mps 758 mmHg 92%
    04:00 +7°C° 0 mm 3 mps 758 mmHg 90%
    05:00 +8°C° 0 mm 3 mps 758 mmHg 87%
    06:00 +9°C° 0 mm 3 mps 758 mmHg 84%
    07:00 +10°C° 0.1 mm 4 mps 759 mmHg 80%
    08:00 +11°C° 0.1 mm 4 mps 759 mmHg 75%
    09:00 +12°C° 0.1 mm 4 mps 760 mmHg 71%
    10:00 +13°C° 0.2 mm 4 mps 760 mmHg 68%
    11:00 +14°C° 0.2 mm 5 mps 760 mmHg 66%
    12:00 +14°C° 0.2 mm 5 mps 761 mmHg 63%
    13:00 +15°C° 0.1 mm 5 mps 761 mmHg 61%
    14:00 +15°C° 0.1 mm 5 mps 761 mmHg 58%
    15:00 +15°C° 0.1 mm 5 mps 762 mmHg 56%
    16:00 +15°C° 0 mm 4 mps 762 mmHg 58%
    17:00 +14°C° 0 mm 4 mps 762 mmHg 59%
    18:00 +14°C° 0 mm 3 mps 762 mmHg 61%
    19:00 +12°C° 0 mm 3 mps 762 mmHg 68%
    20:00 +12°C° 0 mm 2 mps 763 mmHg 74%
    21:00 +9°C° 0 mm 2 mps 763 mmHg 81%
    22:00 +10°C° 0 mm 1 mps 763 mmHg 83%
    23:00 +9°C° 0 mm 1 mps 763 mmHg 85%

    Day after tomorrow, 22 June, Saturday

    Time Temperature Precipitation Wind Pressure Humidity
    00:00 +8°C° 0 mm 1 mps 763 mmHg 86%
    01:00 +8°C° 0 mm 1 mps 763 mmHg 87%
    02:00 +8°C° 0 mm 1 mps 763 mmHg 88%
    03:00 +8°C° 0 mm 1 mps 763 mmHg 88%
    04:00 +9°C° 0 mm 1 mps 763 mmHg 86%
    05:00 +10°C° 0 mm 1 mps 763 mmHg 85%
    06:00 +11°C° 0 mm 1 mps 763 mmHg 83%
    07:00 +12°C° 0 mm 1 mps 764 mmHg 80%
    08:00 +13°C° 0 mm 1 mps 764 mmHg 77%
    09:00 +14°C° 0 mm 1 mps 764 mmHg 74%
    10:00 +15°C° 0.2 mm 1 mps 764 mmHg 75%
    11:00 +15°C° 0.2 mm 1 mps 764 mmHg 76%
    12:00 +16°C° 0.2 mm 2 mps 764 mmHg 78%
    13:00 +16°C° 0.4 mm 1 mps 764 mmHg 78%
    14:00 +18°C° 0.4 mm 1 mps 764 mmHg 78%
    15:00 +18°C° 0.4 mm 1 mps 763 mmHg 78%
    16:00 +18°C° 0.3 mm 1 mps 763 mmHg 79%
    17:00 +18°C° 0.3 mm 1 mps 763 mmHg 80%
    18:00 +18°C° 0.3 mm 1 mps 763 mmHg 80%
    19:00 +16°C° 0.1 mm 1 mps 763 mmHg 82%
    20:00 +14°C° 0.1 mm 0 mps 764 mmHg 84%
    21:00 +13°C° 0.1 mm 0 mps 764 mmHg 86%
    22:00 +13°C° 0 mm 1 mps 764 mmHg 87%
    23:00 +13°C° 0 mm 1 mps 764 mmHg 88%

    23 June, Sunday

    Time Temperature Precipitation Wind Pressure Humidity
    00:00 +13°C° 0 mm 1 mps 764 mmHg 89%
    01:00 +12°C° 0 mm 1 mps 764 mmHg 89%
    02:00 +12°C° 0 mm 1 mps 763 mmHg 90%
    03:00 +12°C° 0 mm 1 mps 763 mmHg 91%
    04:00 +12°C° 0 mm 1 mps 763 mmHg 90%
    05:00 +13°C° 0 mm 2 mps 763 mmHg 90%
    06:00 +13°C° 0 mm 2 mps 763 mmHg 90%
    07:00 +14°C° 0.1 mm 2 mps 764 mmHg 89%
    08:00 +14°C° 0.1 mm 2 mps 764 mmHg 88%
    09:00 +15°C° 0.1 mm 2 mps 764 mmHg 87%
    10:00 +15°C° 0.1 mm 2 mps 764 mmHg 87%
    11:00 +16°C° 0.1 mm 2 mps 764 mmHg 87%
    12:00 +16°C° 0.1 mm 2 mps 764 mmHg 87%
    13:00 +17°C° 0.2 mm 2 mps 764 mmHg 80%
    14:00 +19°C° 0.2 mm 3 mps 764 mmHg 74%
    15:00 +20°C° 0.2 mm 3 mps 764 mmHg 68%
    16:00 +20°C° 0.2 mm 3 mps 764 mmHg 72%
    17:00 +19°C° 0.2 mm 3 mps 764 mmHg 76%
    18:00 +19°C° 0.2 mm 3 mps 764 mmHg 79%
    19:00 +18°C° 0 mm 3 mps 764 mmHg 83%
    20:00 +16°C° 0 mm 3 mps 765 mmHg 87%
    21:00 +14°C° 0 mm 3 mps 765 mmHg 91%
    22:00 +13°C° 0 mm 3 mps 765 mmHg 92%
    23:00 +12°C° 0 mm 4 mps 765 mmHg 93%

    24 June, Monday

    Time Temperature Precipitation Wind Pressure Humidity
    00:00 +12°C° 0 mm 4 mps 765 mmHg 94%
    01:00 +12°C° 0 mm 4 mps 765 mmHg 93%
    02:00 +11°C° 0 mm 4 mps 765 mmHg 93%
    03:00 +11°C° 0 mm 4 mps 765 mmHg 92%
    04:00 +11°C° 0 mm 4 mps 765 mmHg 91%
    05:00 +12°C° 0 mm 5 mps 764 mmHg 89%
    06:00 +12°C° 0 mm 5 mps 764 mmHg 88%
    07:00 +12°C° 0.8 mm 5 mps 764 mmHg 90%
    08:00 +11°C° 0.8 mm 6 mps 764 mmHg 92%
    09:00 +11°C° 0.8 mm 6 mps 764 mmHg 94%
    10:00 +11°C° 2.2 mm 6 mps 764 mmHg 95%
    11:00 +11°C° 2.2 mm 6 mps 764 mmHg 95%
    12:00 +13°C° 2.2 mm 6 mps 764 mmHg 96%
    13:00 +13°C° 1.8 mm 6 mps 764 mmHg 95%
    14:00 +13°C° 1.8 mm 6 mps 764 mmHg 94%
    15:00 +13°C° 1.8 mm 6 mps 764 mmHg 94%
    16:00 +13°C° 0.2 mm 6 mps 765 mmHg 93%
    17:00 +13°C° 0.2 mm 6 mps 765 mmHg 93%
    18:00 +13°C° 0.2 mm 6 mps 765 mmHg 93%
    19:00 +13°C° 0 mm 6 mps 765 mmHg 93%
    20:00 +13°C° 0 mm 5 mps 765 mmHg 93%
    21:00 +13°C° 0 mm 5 mps 766 mmHg 93%
    22:00 +13°C° 0 mm 5 mps 766 mmHg 94%
    23:00 +13°C° 0 mm 5 mps 766 mmHg 94%

    25 June, Tuesday

    Time Temperature Precipitation Wind Pressure Humidity
    00:00 +11°C° 0 mm 6 mps 766 mmHg 94%
    01:00 +11°C° 0 mm 6 mps 766 mmHg 93%
    02:00 +11°C° 0 mm 6 mps 766 mmHg 93%
    03:00 +11°C° 0 mm 6 mps 766 mmHg 92%
    04:00 +11°C° 0 mm 6 mps 766 mmHg 92%
    05:00 +11°C° 0 mm 6 mps 766 mmHg 92%
    06:00 +13°C° 0 mm 6 mps 766 mmHg 92%
    07:00 +11°C° 0.2 mm 7 mps 766 mmHg 92%
    08:00 +11°C° 0.2 mm 7 mps 766 mmHg 93%
    09:00 +11°C° 0.2 mm 7 mps 766 mmHg 94%
    10:00 +11°C° 0.9 mm 8 mps 766 mmHg 94%
    11:00 +11°C° 0.9 mm 8 mps 766 mmHg 94%
    12:00 +12°C° 0.9 mm 8 mps 766 mmHg 94%
    13:00 +12°C° 0 mm 8 mps 766 mmHg 91%
    14:00 +13°C° 0 mm 9 mps 766 mmHg 88%
    15:00 +13°C° 0 mm 9 mps 766 mmHg 85%
    16:00 +13°C° 0 mm 9 mps 766 mmHg 84%
    17:00 +13°C° 0 mm 9 mps 766 mmHg 83%
    18:00 +13°C° 0 mm 8 mps 766 mmHg 82%
    19:00 +13°C° 0 mm 8 mps 766 mmHg 83%
    20:00 +12°C° 0 mm 8 mps 767 mmHg 83%
    21:00 +12°C° 0 mm 7 mps 767 mmHg 84%
    22:00 +12°C° 0 mm 7 mps 768 mmHg 84%
    23:00 +13°C° 0 mm 6 mps 768 mmHg 85%
    Show more